Location: Dackenheim
(49.5215°N, 8.1854°E)
Time: 23:06:06
(UTC+00:00)

BEESAT - Visible Passes

Search period start: 13 March 2026 00:00
Search period end: 23 March 2026 00:00
Orbit: 684 x 692 km, 98.4° (Epoch: 13 March)

Date Brightness Start Highest point End Pass type
(mag) Time Alt. Az. Time Alt. Az. Time Alt. Az.
16 Mar ? 23:42:53 10° N 23:43:05 11° N 23:43:05 11° N visible
18 Mar ? 00:21:42 10° N 00:21:57 11° N 00:21:57 11° N visible
18 Mar ? 23:21:57 10° NNE 23:22:14 12° N 23:22:14 12° N visible
20 Mar ? 00:00:32 10° N 00:01:06 13° N 00:01:06 13° N visible
20 Mar ? 23:01:06 10° NNE 23:01:22 12° NNE 23:01:22 12° NNE visible
21 Mar ? 00:39:35 10° NNW 00:39:57 11° NNW 00:39:57 11° NNW visible
21 Mar ? 23:39:29 10° N 23:40:14 14° N 23:40:14 14° N visible
22 Mar ? 22:40:22 10° NNE 22:40:30 11° NNE 22:40:30 11° NNE visible
